Find Starlink 31487

NORAD ID: 59297 Int'l Des: 2024-056 Owner: SPXS Country: US Constellation: starlink operational
LEOCIRCULAR

实时位置

正在加载3D地球...

关于 Starlink 31487

正在加载描述...

即将过境

Passes for default location (London). Set your location on the main map for personalized predictions.

高度历史

Loading altitude history...

两行轨道根数

1 59297U 24056B 26133.23780387 -.00000142 00000-0 43476-5 0 9999
2 59297 43.0018 226.3925 0000905 283.1036 76.9714 15.27575685121140
Epoch: May 13, 2026 • Age: 6 hours

当前状态

高度 482.2 km
速度 7.63 km/s
星下点 15.25°N, 170.7°W
发射日期 Mar 24, 2024
运行时间 2.1 years
类型 internet

技术详情

分类 Payload
质量 730.00 kg
干质量 700.00 kg
总质量 730.00 kg
长度 0.30 m
直径 4.10 m
跨度 29.00 m
形状 Box + pan
制造商 SPXS
平台类型 Starlink V2M
阶段状态 In Orbit
所有者/国家 SPXS/US

Most Searched